Temperature
22 22 21 21 20 20 19 19 19 19 18 18 18 18 18 18 18 17 17 17 17 17 16 16 16 16 16 16 16 15 15 15 15 15 15 15 15 15 15 15 15 15 15
22 22 21 21 20 20 20 19 19 19 18 18 18 18 18 18 17 17 17 17 17 16 16 16 16 16 16 16 15 15 15 15 15 15 15 15 15 15 15 15 15 15 15
22 22 21 21 20 20 20 19 19 19 18 18 18 18 18 18 17 17 17 17 17 16 16 16 16 15 15 15 15 15 15 15 15 15 15 14 14 14 14 14 14 14 14
22 22 21 21 21 20 20 19 19 19 19 18 18 18 18 18 17 17 17 17 16 16 16 16 15 15 15 15 15 15 15 15 14 14 14 14 14 14 14 14 14 14 14
22 22 21 21 21 20 20 19 19 19 18 18 18 18 18 17 17 17 17 17 16 16 16 16 15 15 15 15 15 15 14 14 14 14 14 14 14 14 14 14 14 14 13
22 22 21 21 20 20 20 19 19 19 18 18 18 18 17 17 17 17 16 16 16 16 16 16 15 15 15 15 14 14 14 14 14 14 13 13 13 13 13 13 13 13 13
22 21 21 20 20 20 20 19 19 19 18 18 17 17 17 17 17 16 16 16 16 16 16 15 15 15 15 14 14 14 14 13 13 13 13 13 13 13 13 13 13 12 12
21 21 21 20 20 20 19 19 19 18 18 18 17 17 17 17 16 16 16 16 16 15 15 15 15 15 14 14 14 13 13 13 13 13 12 12 12 12 12 12 12 12 12
21 21 21 20 20 19 19 19 18 18 18 17 17 17 16 16 16 16 16 16 15 15 15 15 14 14 14 14 13 13 13 13 13 12 12 12 12 12 12 12 12 12 12
21 20 20 20 19 19 19 18 18 17 17 17 16 16 16 16 16 16 15 15 15 15 14 14 14 14 13 13 13 13 13 12 12 12 12 12 12 12 12 11 11 11 11
20 20 19 19 19 18 18 18 17 17 16 16 16 16 15 15 15 15 15 15 14 14 14 13 13 13 13 12 12 12 12 12 12 12 12 12 12 11 11 11 11 11 11
19 19 18 18 18 17 17 17 17 16 16 16 15 15 15 15 15 14 14 14 14 13 13 13 13 12 12 12 12 12 12 12 11 11 11 11 11 11 11 11 10 10 10
18 18 18 18 17 17 17 16 16 16 16 15 15 15 15 15 14 14 14 13 13 13 13 12 12 12 12 12 11 11 11 11 11 11 11 11 10 10 10 10 10 10 10
17 17 17 17 17 16 16 15 15 15 15 15 15 14 14 14 14 14 13 13 13 12 12 12 12 11 11 11 11 11 11 11 10 10 10 10 10 10 10 10 10 9 9
17 17 16 16 16 16 15 15 15 15 15 15 15 14 14 14 14 13 13 13 12 12 12 12 11 11 11 10 10 10 10 10 10 10 10 9 9 9 9 9 9 9 9
16 16 16 15 15 15 15 14 14 14 14 14 14 14 13 13 13 12 12 12 11 11 11 11 11 11 10 10 10 9 9 9 9 9 9 9 9 9 9 9 8 8 8
16 15 15 15 15 14 14 14 14 13 13 13 13 13 13 12 12 12 11 11 11 11 11 10 10 10 9 9 9 9 9 9 8 8 8 8 8 8 8 8 8 8 8
15 15 15 15 14 14 14 14 13 13 13 13 12 12 12 12 11 11 11 11 10 10 10 10 9 9 9 9 9 8 8 8 8 8 8 8 8 8 7 7 7 7 7
15 14 14 14 14 14 13 13 13 13 12 12 12 11 11 11 11 10 10 10 10 10 9 9 9 9 8 8 8 8 8 8 8 7 7 7 7 7 7 7 7 7 7
14 14 14 14 14 13 13 13 12 12 12 11 11 11 11 11 10 10 10 10 9 9 9 9 8 8 8 8 8 7 7 7 7 7 7 7 6 6 6 6 6 6 6
13 13 13 13 13 13 12 12 12 12 11 11 11 11 10 10 10 10 9 9 9 9 8 8 8 8 8 8 7 7 7 7 7 7 6 6 6 6 6 6 6 6 6
13 13 13 12 12 12 12 12 11 11 11 10 10 10 10 10 9 9 9 9 8 8 8 8 8 8 7 7 7 7 7 6 6 6 6 6 6 5 5 5 5 5 5
12 12 12 12 12 11 11 11 11 10 10 10 10 10 9 9 9 9 9 8 8 8 8 7 7 7 7 7 6 6 6 6 6 6 6 5 5 5 5 5 5 5 5
12 12 12 11 11 11 11 11 10 10 10 10 9 9 9 9 8 8 8 8 8 8 7 7 7 7 6 6 6 6 6 5 5 5 5 5 5 5 5 5 5 5 4
11 11 11 11 11 10 10 10 10 10 9 9 9 9 8 8 8 8 8 7 7 7 7 6 6 6 6 6 5 5 5 5 5 5 5 4 4 4 4 4 4 4 4
11 11 10 10 10 10 10 10 9 9 9 9 8 8 8 8 8 7 7 7 7 6 6 6 6 5 5 5 5 5 4 4 4 4 4 4 4 4 4 3 3 3 3
Wind_Speed
7 7 6 5 5 5 4 4 4 4 3 3 3 2 1 1 1 1 2 2 2 2 2 2 3 2 2 2 2 3 3 4 6 4 2 2 2 3 3 3 3 3 3
7 6 6 5 5 5 5 4 4 4 3 3 3 2 2 1 1 2 2 1 1 2 2 2 2 2 2 2 2 3 3 4 4 5 3 2 3 2 2 2 2 2 1
7 7 6 6 6 6 6 5 4 3 3 3 3 3 2 2 2 2 2 1 1 2 2 1 2 1 2 2 2 2 2 3 3 3 3 2 2 1 1 1 1 1 1
7 8 8 8 7 7 6 6 5 5 5 4 3 3 2 2 2 2 2 1 1 1 0 1 1 2 2 2 2 2 2 2 2 2 2 2 2 1 1 1 1 1 1
7 8 9 8 7 7 7 7 6 5 5 4 3 2 2 2 2 2 2 2 1 0 0 0 1 2 2 2 2 2 2 1 1 1 2 1 2 1 1 1 1 1 1
8 8 7 7 7 8 7 7 6 5 4 4 3 3 2 2 2 3 3 2 2 2 0 1 1 2 3 2 2 2 1 1 1 2 2 2 3 2 1 1 1 1 1
6 6 6 7 7 7 7 7 6 6 5 4 4 3 2 1 2 2 3 3 2 1 0 1 1 2 2 2 2 2 2 3 1 1 2 2 2 2 1 1 1 1 1
6 6 6 6 6 6 6 6 6 5 5 4 3 3 2 1 1 2 3 3 2 1 0 0 1 2 2 2 1 2 2 2 2 1 1 2 2 1 1 2 2 1 0
6 6 6 6 6 7 7 6 5 5 4 3 3 3 3 1 1 2 3 2 2 1 1 1 1 2 3 2 1 1 2 3 3 2 1 1 2 2 1 1 1 1 1
5 5 5 6 6 7 7 7 5 5 5 4 3 3 3 1 1 3 4 2 2 1 1 1 2 2 3 3 1 1 1 3 3 3 3 3 3 2 2 1 1 1 0
5 5 6 6 6 5 5 5 6 6 5 4 3 2 2 1 1 2 4 2 2 1 1 0 1 3 3 3 2 1 1 1 1 2 2 3 3 2 2 1 0 1 1
4 4 5 5 5 5 6 5 5 6 5 4 3 2 1 1 1 1 3 2 2 2 1 0 0 2 2 2 2 1 1 2 2 2 2 2 2 2 2 2 1 1 1
5 4 4 4 4 5 6 6 5 5 5 4 4 3 2 1 0 1 2 2 2 2 1 2 2 2 2 2 3 3 3 2 2 2 1 2 2 2 2 2 1 1 1
5 4 4 4 4 4 4 5 5 5 5 5 4 4 3 2 1 1 1 1 2 1 1 2 4 4 3 3 3 3 3 2 1 1 2 2 2 2 2 2 1 1 1
5 5 5 4 5 4 4 2 3 3 5 6 5 5 4 3 3 4 3 2 2 2 3 2 3 2 3 3 3 3 3 2 2 2 2 2 2 2 2 2 1 1 1
5 5 5 5 4 5 5 3 4 3 3 4 4 5 3 3 5 5 5 4 4 5 4 3 2 2 1 1 2 2 2 2 2 2 2 2 2 2 2 2 1 1 1
5 4 4 5 5 5 5 5 3 3 5 5 4 5 5 6 6 6 6 6 6 6 4 2 2 1 1 1 1 1 1 1 1 1 1 2 2 2 2 3 3 2 2
4 4 4 4 4 5 5 5 4 4 3 1 2 4 6 6 6 6 7 7 4 3 2 2 2 1 1 1 0 0 1 1 1 2 2 2 2 2 2 3 3 3 3
4 3 4 4 4 5 5 5 5 5 4 3 2 2 4 5 6 6 6 3 3 3 2 2 2 2 1 1 0 0 0 1 1 1 1 2 2 2 2 3 3 3 3
3 4 4 4 4 5 5 5 5 5 5 4 4 3 4 4 3 3 2 2 3 3 3 2 2 2 1 1 1 0 1 1 1 1 1 2 2 2 3 3 3 3 3
2 3 4 4 4 5 5 5 5 5 5 5 4 4 6 5 4 4 3 3 3 3 3 2 2 2 1 1 1 0 0 0 1 1 1 2 2 2 3 3 3 3 3
2 2 2 3 3 4 4 4 5 5 5 5 3 3 5 4 3 3 3 3 2 2 2 2 2 1 1 1 1 1 0 1 1 1 2 2 2 3 3 3 3 3 3
3 3 3 3 3 5 5 4 4 4 4 4 4 4 4 3 3 3 3 3 2 2 2 2 2 1 1 1 1 1 1 1 1 2 2 2 2 2 3 3 4 4 4
3 3 3 3 4 4 4 4 4 4 4 4 4 4 4 3 3 3 3 3 3 2 2 2 2 2 2 2 2 2 1 1 1 2 2 2 2 3 3 3 4 4 4
3 4 4 4 4 4 4 4 4 4 4 4 4 3 3 3 3 3 2 2 3 2 3 2 2 3 3 3 3 3 3 3 3 2 2 1 2 3 3 4 4 4 4
4 4 4 4 4 4 4 4 4 4 4 3 3 3 3 3 3 3 3 3 3 2 3 2 3 4 4 3 3 3 4 4 4 4 2 1 2 2 3 3 4 4 4
Wind_Direction
198 197 197 193 187 182 188 201 202 202 195 197 205 200 196 211 207 202 242 264 265 277 279 267 276 275 267 259 242 237 237 237 254 269 251 266 253 267 288 283 280 279 274
192 190 194 187 175 179 189 195 191 195 195 190 186 180 200 212 200 204 238 259 259 274 281 282 289 298 293 291 271 256 246 235 242 264 271 263 260 269 274 276 288 285 286
177 180 187 185 182 188 190 185 184 187 186 180 182 186 202 204 206 215 219 234 241 255 260 265 285 289 298 296 284 278 270 256 240 246 261 251 257 273 277 286 294 308 324
177 182 193 192 184 188 183 172 178 188 189 182 182 185 195 200 210 210 200 209 224 253 274 278 302 301 298 299 289 280 276 268 249 249 260 263 265 274 256 293 317 326 316
185 193 200 193 182 179 178 177 180 183 185 169 169 177 188 203 229 210 194 181 166 139 27 338 314 314 309 306 307 293 271 255 254 255 270 286 281 295 284 268 283 312 303
191 203 197 186 183 182 182 177 172 172 168 159 175 185 196 227 217 189 177 164 154 150 144 331 344 346 346 352 1 8 9 261 256 254 255 269 270 273 277 257 244 301 282
189 195 190 186 185 185 183 175 177 177 168 168 177 180 193 209 193 181 179 158 146 145 141 334 339 350 351 345 350 11 21 23 22 261 271 276 279 276 263 256 246 247 253
184 185 181 183 186 181 176 178 177 167 166 170 168 163 163 145 140 149 152 143 127 114 93 346 327 332 345 340 352 20 15 8 355 321 270 287 297 299 250 240 234 229 251
187 186 180 179 184 184 183 183 175 159 161 166 157 152 152 131 108 148 147 132 121 93 55 39 16 349 353 25 73 13 354 344 359 22 25 345 1 43 82 108 96 119 281
193 187 176 178 184 187 183 178 169 160 165 163 155 151 151 147 125 142 143 135 135 118 52 37 40 34 25 52 87 69 347 333 348 8 19 24 22 33 57 104 169 158 311
172 162 165 169 173 177 173 167 158 153 154 161 157 147 140 138 130 128 136 149 168 169 159 27 21 38 45 56 72 64 313 332 16 29 25 23 23 19 11 6 287 204 213
138 147 147 149 157 157 158 161 157 156 162 166 158 156 148 133 112 134 138 139 150 164 183 181 61 60 63 65 66 45 51 68 68 53 32 12 5 355 340 330 325 293 274
130 143 143 139 143 148 155 158 159 162 165 173 177 187 187 174 88 140 161 160 158 162 156 131 106 95 87 70 51 49 55 63 61 44 8 339 331 327 342 349 353 1 17
141 142 150 156 155 157 164 164 168 174 177 178 190 195 187 175 184 197 186 162 157 131 100 97 94 86 78 68 50 43 40 42 47 23 345 340 345 357 6 6 4 358 356
149 156 166 170 165 160 148 147 170 184 191 183 193 191 188 199 207 186 174 173 168 155 126 90 74 67 58 49 43 38 34 37 33 17 10 6 2 1 358 358 6 15 13
162 168 172 174 168 162 158 137 73 94 108 132 157 166 169 167 161 161 158 143 132 131 115 105 95 90 79 53 45 32 24 17 7 6 7 5 355 348 347 350 347 332 307
171 175 176 177 177 174 170 170 162 89 82 95 120 137 140 138 138 143 143 130 120 124 111 121 121 122 109 81 48 26 5 357 3 9 2 360 355 351 350 349 347 336 323
162 169 172 176 175 176 177 175 177 170 164 131 87 116 135 136 138 140 135 118 106 113 129 143 151 148 141 131 97 336 352 20 25 13 2 359 358 349 346 344 341 330 320
159 172 171 170 168 169 169 168 170 172 168 151 125 100 118 127 125 131 137 129 145 156 161 159 167 164 160 156 191 294 5 18 16 10 3 357 350 343 334 331 330 327 321
171 171 163 163 164 162 165 169 169 167 164 162 168 164 149 133 135 148 156 153 158 165 170 172 178 173 166 157 161 96 34 16 8 0 348 344 338 328 321 324 329 326 318
159 165 156 153 165 168 170 173 170 165 167 172 176 169 160 162 168 171 175 175 174 177 177 177 180 179 170 164 160 135 122 324 336 332 327 324 322 317 311 313 315 312 312
159 154 152 153 156 159 162 162 158 158 163 165 158 150 157 158 166 169 174 178 180 178 167 158 155 157 161 169 184 191 224 281 305 307 307 313 320 317 314 316 322 321 318
147 138 134 134 139 142 143 145 149 151 153 156 157 155 159 166 168 170 169 166 159 151 136 131 130 118 98 97 104 138 194 257 272 274 286 299 305 307 310 311 312 314 315
140 136 134 133 136 139 141 145 146 145 146 151 158 161 164 167 167 164 163 159 153 145 140 138 132 129 112 82 60 51 26 337 308 284 282 287 297 304 307 308 306 305 302
127 128 126 131 136 138 139 140 141 139 141 148 153 153 154 153 151 148 143 133 128 122 113 113 115 106 98 86 70 55 41 35 25 2 332 314 312 314 315 312 312 312 312
119 120 119 122 128 133 134 135 137 139 146 148 147 149 150 145 138 133 130 127 127 120 107 98 100 100 94 86 73 63 54 45 35 26 17 356 341 336 330 320 321 319 317
Height
1525 1527 1529 1530 1532 1534 1535 1536 1537 1537 1538 1538 1538 1538 1538 1538 1538 1538 1537 1536 1536 1535 1535 1534 1533 1532 1531 1530 1530 1529 1528 1528 1526 1525 1525 1524 1524 1523 1523 1523 1522 1522 1522
1522 1524 1525 1527 1529 1530 1532 1533 1534 1535 1536 1536 1536 1536 1536 1536 1536 1536 1535 1534 1534 1533 1532 1531 1530 1529 1528 1527 1526 1525 1525 1524 1523 1522 1521 1520 1520 1519 1519 1519 1518 1518 1518
1518 1521 1523 1524 1526 1527 1528 1529 1531 1532 1533 1533 1533 1533 1534 1534 1534 1533 1533 1532 1531 1530 1529 1529 1528 1527 1525 1524 1523 1522 1521 1520 1520 1519 1518 1517 1516 1516 1515 1515 1514 1514 1514
1515 1517 1519 1521 1522 1524 1526 1527 1528 1529 1529 1529 1530 1531 1531 1531 1531 1530 1530 1529 1528 1528 1527 1526 1526 1525 1523 1522 1520 1519 1518 1517 1516 1515 1515 1514 1513 1512 1512 1511 1511 1510 1510
1512 1514 1516 1518 1519 1520 1522 1523 1525 1526 1526 1526 1527 1528 1529 1529 1528 1528 1527 1526 1526 1525 1524 1523 1523 1522 1521 1519 1518 1516 1515 1513 1513 1512 1511 1511 1510 1509 1509 1508 1508 1507 1507
1507 1510 1512 1514 1515 1516 1518 1519 1521 1522 1523 1524 1524 1525 1525 1526 1526 1525 1525 1524 1523 1522 1522 1521 1520 1519 1518 1517 1515 1514 1513 1512 1510 1509 1508 1508 1507 1507 1506 1506 1505 1505 1504
1503 1506 1508 1510 1511 1513 1514 1515 1517 1518 1519 1520 1521 1522 1522 1523 1523 1522 1522 1521 1520 1520 1519 1518 1517 1516 1515 1514 1513 1512 1511 1509 1508 1508 1506 1505 1504 1503 1503 1503 1502 1501 1501
1499 1501 1503 1505 1507 1509 1511 1512 1513 1515 1516 1517 1518 1518 1519 1519 1520 1519 1519 1518 1518 1517 1516 1515 1514 1514 1512 1511 1511 1510 1508 1507 1506 1505 1504 1503 1502 1501 1500 1500 1499 1499 1498
1495 1496 1498 1500 1503 1505 1507 1509 1510 1512 1513 1514 1515 1515 1516 1516 1517 1516 1516 1516 1515 1514 1513 1512 1511 1510 1510 1508 1508 1507 1506 1505 1504 1503 1502 1501 1500 1499 1498 1498 1497 1496 1495
1490 1492 1494 1497 1499 1501 1503 1506 1507 1508 1509 1511 1512 1512 1513 1513 1513 1513 1513 1513 1512 1511 1510 1510 1509 1508 1507 1506 1505 1504 1503 1503 1502 1500 1499 1498 1498 1497 1496 1495 1495 1494 1493
1487 1489 1491 1493 1495 1497 1500 1502 1504 1504 1506 1507 1509 1510 1510 1510 1510 1510 1510 1509 1509 1508 1507 1506 1506 1505 1504 1503 1503 1502 1501 1500 1499 1498 1497 1496 1495 1495 1494 1493 1493 1492 1492
1483 1485 1487 1490 1491 1493 1496 1498 1500 1501 1502 1503 1505 1506 1507 1507 1507 1507 1507 1507 1506 1505 1504 1504 1503 1502 1502 1501 1501 1500 1499 1498 1497 1496 1496 1495 1494 1493 1492 1492 1491 1490 1490
1481 1482 1484 1486 1487 1489 1492 1494 1496 1497 1498 1499 1501 1502 1503 1504 1504 1504 1504 1504 1503 1503 1502 1501 1500 1500 1499 1499 1499 1498 1497 1496 1496 1495 1494 1493 1492 1491 1490 1490 1489 1488 1488
1477 1479 1482 1483 1485 1486 1488 1491 1492 1493 1494 1495 1497 1498 1499 1499 1500 1500 1501 1500 1500 1500 1499 1499 1498 1498 1497 1497 1496 1496 1496 1495 1494 1493 1493 1492 1491 1490 1489 1487 1487 1486 1485
1474 1476 1478 1480 1481 1483 1485 1487 1488 1489 1491 1492 1493 1494 1495 1496 1496 1497 1497 1497 1497 1497 1497 1496 1495 1495 1495 1494 1494 1494 1494 1493 1492 1492 1491 1490 1489 1488 1487 1486 1485 1484 1483
1471 1473 1475 1476 1478 1480 1482 1484 1485 1486 1487 1488 1490 1491 1491 1493 1493 1494 1494 1495 1495 1495 1494 1493 1493 1493 1493 1493 1492 1492 1492 1491 1491 1490 1489 1488 1487 1486 1485 1484 1483 1482 1481
1468 1469 1471 1473 1474 1476 1478 1480 1481 1483 1484 1485 1486 1487 1488 1489 1490 1491 1491 1492 1492 1492 1492 1491 1491 1491 1491 1491 1491 1490 1490 1490 1489 1489 1488 1487 1486 1485 1484 1483 1482 1481 1479
1466 1467 1468 1469 1471 1473 1475 1477 1479 1479 1481 1482 1483 1483 1485 1486 1487 1488 1488 1489 1488 1488 1489 1489 1489 1489 1489 1489 1489 1489 1489 1488 1487 1487 1486 1485 1485 1484 1482 1481 1480 1479 1478
1463 1464 1465 1466 1467 1469 1471 1473 1475 1477 1478 1478 1479 1480 1482 1483 1484 1485 1485 1485 1485 1486 1486 1486 1487 1487 1487 1487 1487 1487 1487 1486 1485 1485 1484 1483 1482 1482 1480 1479 1478 1477 1476
1460 1462 1462 1463 1463 1465 1467 1470 1471 1473 1474 1475 1476 1478 1479 1480 1480 1481 1482 1482 1483 1483 1484 1485 1485 1485 1485 1485 1485 1485 1484 1484 1483 1483 1482 1481 1480 1480 1478 1477 1476 1475 1474
1458 1459 1459 1460 1461 1463 1464 1466 1467 1469 1470 1472 1474 1475 1476 1477 1478 1478 1479 1479 1480 1481 1482 1483 1483 1483 1483 1483 1482 1482 1482 1482 1481 1480 1480 1479 1478 1477 1476 1475 1473 1472 1471
1457 1457 1458 1458 1459 1461 1462 1463 1465 1466 1467 1469 1471 1473 1474 1475 1476 1476 1477 1477 1478 1479 1480 1481 1480 1480 1480 1480 1480 1480 1480 1479 1478 1478 1477 1476 1476 1475 1473 1472 1471 1470 1469
1455 1455 1455 1457 1458 1459 1460 1461 1463 1464 1466 1467 1469 1471 1472 1473 1473 1474 1475 1476 1477 1477 1478 1478 1478 1478 1478 1478 1477 1477 1477 1476 1476 1475 1475 1474 1473 1472 1471 1469 1468 1467 1466
1453 1454 1454 1455 1456 1457 1458 1460 1461 1463 1464 1466 1467 1468 1469 1470 1471 1472 1473 1474 1475 1475 1476 1476 1476 1476 1476 1475 1475 1475 1474 1474 1473 1472 1472 1471 1470 1469 1468 1467 1465 1464 1463
1452 1452 1452 1454 1455 1456 1457 1459 1460 1461 1463 1464 1466 1467 1468 1468 1469 1470 1471 1472 1472 1473 1473 1473 1473 1473 1473 1472 1472 1472 1472 1471 1470 1470 1469 1468 1467 1466 1465 1464 1462 1461 1460
1451 1451 1452 1453 1454 1455 1456 1458 1459 1460 1462 1463 1464 1465 1466 1467 1467 1468 1469 1470 1470 1471 1471 1471 1471 1471 1471 1471 1470 1470 1469 1469 1468 1467 1465 1464 1463 1462 1461 1460 1459 1458 1456